Flag for U.S.A. Weather past 2 weeks in Vevay, Indiana, U.S.A.

Now
64 °F

Sunny.


Feels Like: 64 °F
Forecast: 45 / 69 °F
Wind: 15 mph from West

Location: Cincinnati / Northern Kentucky International Airport

Current Time: Mar 31, 2015 at 12:28:42 PM

Latest Report: Mar 31, 2015 at 11:52 AM


Visibility: 10 mi

Pressure: 29.79 "Hg

Humidity: 38%

Dew point: 38 °F

Location of VevayLocation

Historic Weather in Vevay — Graph

°F

Vevay temperature yesterday

Maximum temperature yesterday: 59 °F (at 3:52 PM)
Minimum temperature yesterday: 39 °F (at 6:52 AM)
Average temperature yesterday: 50 °F

Past Weeks' High & Low Weather Summary

 TemperatureHumidityPressure
High75 °F (Mar 16, 4:52 PM)100% (Mar 26, 6:52 AM)30.37 "Hg (Mar 26, 6:52 AM)
Low20 °F (Mar 28, 5:52 AM)23% (Mar 18, 3:52 PM)29.80 "Hg (Mar 31, 10:52 AM)
Average44 °F57%30.10 "Hg
* Reported Mar 16 10:52 AM — Mar 31 10:52 AM, Vevay, Weather by CustomWeather, © 2015

Note: Actual official high and low records may vary slightly from our data, if they occured in-between our weather recording intervals... More about our weather records

Advertising

Vevay weather history for previous 24 hours

 ConditionsComfort  
Time TempWeatherWind HumidityBarometerVisibility
10:52 AM
Tue, Mar 31
61 °FSunny.16 mph41%29.80 "Hg10 mi
9:52 AM57 °FSunny.15 mph44%29.80 "Hg10 mi
8:52 AM52 °FPassing clouds.14 mph47%29.81 "Hg10 mi
7:52 AM50 °FPassing clouds.13 mph46%29.83 "Hg10 mi
6:52 AM49 °FPassing clouds.14 mph46%29.83 "Hg10 mi
5:52 AM47 °FPassing clouds.10 mph50%29.85 "Hg10 mi
4:52 AM44 °FPassing clouds.7 mph55%29.88 "Hg10 mi
3:52 AM46 °FClear.9 mph51%29.90 "Hg10 mi
2:52 AM46 °FPassing clouds.8 mph51%29.96 "Hg10 mi
1:52 AM47 °FPassing clouds.8 mph50%29.98 "Hg10 mi
12:52 AM46 °FOvercast.7 mph51%30.01 "Hg10 mi
11:52 PM
Mon, Mar 30
49 °FOvercast.7 mph48%30.03 "Hg10 mi
10:52 PM49 °FOvercast.7 mph50%30.05 "Hg10 mi
9:52 PM42 °FMostly cloudy.6 mph73%30.05 "Hg10 mi
8:52 PM51 °FScattered clouds.3 mph42%30.04 "Hg10 mi
7:52 PM54 °FBroken clouds.6 mph38%30.04 "Hg10 mi
6:52 PM57 °FBroken clouds.15 mph34%30.05 "Hg10 mi
5:52 PM59 °FBroken clouds.18 mph31%30.05 "Hg10 mi
4:52 PM59 °FBroken clouds.17 mph29%30.05 "Hg10 mi
3:52 PM59 °FPartly sunny.16 mph29%30.06 "Hg10 mi
2:52 PM58 °FScattered clouds.14 mph31%30.08 "Hg10 mi
1:52 PM56 °FScattered clouds.14 mph37%30.11 "Hg10 mi
12:52 PM54 °FPassing clouds.16 mph38%30.11 "Hg10 mi
Weather by CustomWeather, © 2015

See weather overviewHow to use our weather pages